This is the latest recevied weather packets stored in our database for station/object KA9CBS. If no packets are shown the sender has not sent any weather packets the latest 10 day(s).
| Time | Temp. | Humidity | Pressure | Rain* | Wind** | Luminosity | Snow |
|---|---|---|---|---|---|---|---|
| 1777847009 | 20.56° C | 45% | 1012.7 hPa | 0 mm | - | 66 W/m² | - |
| 1777846707 | 20.56° C | 46% | 1013 hPa | 0 mm | - | 69 W/m² | - |
| 1777846406 | 20.56° C | 44% | 1012.8 hPa | 0 mm | - | 162 W/m² | - |
| 1777846101 | 20° C | 46% | 1012.9 hPa | 0 mm | - | 109 W/m² | - |
| 1777845798 | 20° C | 43% | 1013.2 hPa | 0 mm | - | 74 W/m² | - |
| 1777845494 | 20.56° C | 43% | 1012.9 hPa | 0 mm | - | 115 W/m² | - |
| 1777845192 | 20.56° C | 46% | 1013.1 hPa | 0 mm | - | 118 W/m² | - |
| 1777844890 | 20.56° C | 48% | 1013 hPa | 0 mm | - | 104 W/m² | - |
| 1777844586 | 20° C | 46% | 1013 hPa | 0 mm | - | 202 W/m² | - |
| 1777844278 | 20° C | 44% | 1013.2 hPa | 0 mm | - | 293 W/m² | - |
| 1777843975 | 20° C | 44% | 1013.3 hPa | 0 mm | - | 117 W/m² | - |
| 1777843672 | 20° C | 44% | 1013.6 hPa | 0 mm | - | 103 W/m² | - |
| 1777843369 | 20° C | 43% | 1013.7 hPa | 0 mm | - | 123 W/m² | - |
| 1777843061 | 20° C | 46% | 1013.8 hPa | 0 mm | - | 126 W/m² | - |
| 1777842758 | 20° C | 45% | 1013.9 hPa | 0 mm | - | 121 W/m² | - |
| 1777842453 | 20° C | 44% | 1014.1 hPa | 0 mm | - | 101 W/m² | - |
| 1777842151 | 20° C | 44% | 1014.1 hPa | 0 mm | - | 522 W/m² | - |
| 1777841846 | 19.44° C | 43% | 1014.5 hPa | 0 mm | - | 102 W/m² | - |
| 1777841542 | 19.44° C | 44% | 1014.3 hPa | 0 mm | - | 572 W/m² | - |
| 1777841239 | 19.44° C | 44% | 1014.6 hPa | 0 mm | - | 572 W/m² | - |
| 1777840937 | 20° C | 49% | 1014.7 hPa | 0 mm | - | 616 W/m² | - |
| 1777840634 | 19.44° C | 47% | 1014.8 hPa | 0 mm | - | 573 W/m² | - |
| 1777840331 | 19.44° C | 46% | 1014.9 hPa | 0 mm | - | 620 W/m² | - |
| 1777840028 | 20° C | 45% | 1015.3 hPa | 0 mm | - | 530 W/m² | - |
| 1777839726 | 19.44° C | 48% | 1015.4 hPa | 0 mm | - | 586 W/m² | - |
* Rain latest hour (hover to see other rain measurements)
** Current wind speed in m/s (hover to see current wind gust speed)